"Pseudo-MPEC" for P11XUrx

Created 2024 Sep 7 16:22:10 UT using Find_Orb

Click here for an explanation of pseudo-MPECs

 
 Astrometry: 
     P11XUrx* C2024 09 04.30015317 42 51.490+08 16 13.31   ~9497 21.80wXNEOCPF51
     P11XUrx  C2024 09 04.32099017 42 48.560+08 16 03.53   ~9497 21.49wXNEOCPF51
     P11XUrx  C2024 09 04.33135817 42 47.125+08 15 58.84   ~9497 21.99wXNEOCPF51
     P11XUrx  C2024 09 04.38383917 42 39.844+08 15 34.24   ~94K7 22.10GVNEOCPF51
     P11XUrx  C2024 09 04.38448717 42 39.756+08 15 34.09   ~94K7 21.94GVNEOCPF51
     P11XUrx KC2024 09 05.07605117 41 08.24 +08 10 09.3    ~952b 21.9 GVNEOCPH21
     P11XUrx KC2024 09 05.08221617 41 07.45 +08 10 06.7    ~952b 22.0 GVNEOCPH21
     P11XUrx  C2024 09 05.14878117 40 58.454+08 09 36.33   ~954b 21.7 GVNEOCPH01
     P11XUrx  C2024 09 05.15224717 40 57.969+08 09 34.74   ~954b 21.7 GVNEOCPH01
     P11XUrx  C2024 09 05.16350817 40 56.418+08 09 29.37   ~954b 22.0 GVNEOCPH01
     P11XUrx  C2024 09 05.17034717 40 55.467+08 09 26.07   ~954b 21.7 GVNEOCPH01
     P11XUrx !C2024 09 05.20256 17 40 51.16 +08 09 10.8    ~955q 22.9 GVNEOCP673
     P11XUrx !C2024 09 05.21484 17 40 49.50 +08 09 04.7    ~955q       VNEOCP673
     P11XUrx !C2024 09 06.22774 17 38 35.79 +08 00 58.9    ~966M 21.9 GVNEOCP673
     P11XUrx !C2024 09 06.23669 17 38 34.64 +08 00 55.3    ~966M       VNEOCP673

Station data:
(673) Table Mountain Observatory, Wrightwood  (N34.381485 W117.682170)
   US/California.  Observers J. Chesley, J. Pittichova. Measurer W. M. Owen
   Jr. 0.61-m f/16 reflector + CCD.
(F51) Pan-STARRS 1, Haleakala  (N20.707234 W156.255910)  US/Hawaii.
   Observers J. Bulger, T. Lowe, A. Schultz, M. Willman. Measurers K.
   Chambers, S. Chastel, T. de Boer, L. Denneau, J. Fairlamb, H. Flewelling,
   M. Huber, C.-C. Lin, E. Magnier, Y. Ramanjooloo, R. Wainscoat, R. Weryk.
   1.8-m Ritchey-Chrétien + CCD.
(H01) Magdalena Ridge Observatory, Socorro  (N33.984833 W107.189333)  US/New
   Mexico.  Observers W. H. Ryan, E. V. Ryan. Measurer W. H. Ryan. 2.4-m
   f/8.9 reflector + CCD.
(H21) Astronomical Research Observatory, Westfield  (N39.483054 W87.968270)
   US/Illinois.  Observer R. Holmes. Measurers S. Foglia, L. Buzzi, T.
   Linder, R. Holmes. 0.76-m f/3.0 astrograph + CCD0.81-m f/4.0 astrograph +
   CCD0.61-m f/4.5 astrograph + CCD0.40-m f/5.32 astrograph + CCD.

Orbital elements:  P11XUrx
   Perihelion 2024 Nov 5.45237 +/- 0.376 TT = 10:51:25 (JD 2460619.95237)
Epoch 2024 Sep  6.0 TT = JDT 2460559.5   Earth MOID: 0.1923   Ve: 0.0534
M 342.32536218 +/- 1.6              (J2000 ecliptic)             AutoNEOCP
n   0.29237293 +/- 0.0255           Peri.  191.06916 +/- 0.19
a   2.24825003 +/- 0.131            Node   224.90014 +/- 0.43
e   0.7028990 +/- 0.02              Incl.   12.12975 +/- 0.26
P   3.37106                H 21.32  G  0.15   U 10.3
q 0.66795724 +/- 0.00729    Q 3.82854283 +/- 0.268
From 15 observations 2024 Sept. 4-6 (46.5 hr); mean residual 0".26
Residuals in arcseconds: 
240904 F51  .05+  .04-    240905 H21  .24-  .17+    240905 H01  .10-  .09-    
240904 F51  .10-  .14-    240905 H21  .72+  .48+    240905 673  .39-  .06-    
240904 F51  .09+  .00     240905 H01  .07-  .11-    240905 673  .10+  .28-    
240904 F51  .03-  .01+    240905 H01  .14-  .05-    240906 673  .46-  .46-    
240904 F51  .01-  .16+    240905 H01  .02-  .06-    240906 673  .50+  .39+    

Ephemerides (geocentric):
Date (UTC) HH   RA             Dec           delta  r     elong  mag " sig PA
---- --------  ------------   ------------  ------ ------ -----  --- --------
2024 09 07 16  17 35 29.138   +07 49 11.25  .46363 1.1566  96.6 22.1 .908  37
2024 09 07 17  17 35 23.748   +07 48 50.03  .46349 1.1561  96.6 22.1 .924  37
2024 09 07 18  17 35 18.360   +07 48 28.77  .46334 1.1557  96.5 22.1 .940  37
2024 09 07 19  17 35 12.975   +07 48 07.49  .46320 1.1552  96.4 22.1 .957  37
2024 09 07 20  17 35 07.591   +07 47 46.19  .46306 1.1547  96.4 22.1 .973  37
2024 09 07 21  17 35 02.209   +07 47 24.86  .46292 1.1542  96.3 22.1 .989  37
2024 09 07 22  17 34 56.829   +07 47 03.50  .46278 1.1538  96.3 22.1 1.01  37
2024 09 07 23  17 34 51.451   +07 46 42.12  .46264 1.1533  96.2 22.1 1.02  37
2024 09 08 00  17 34 46.075   +07 46 20.71  .46250 1.1528  96.2 22.1 1.04  37
2024 09 08 01  17 34 40.701   +07 45 59.28  .46236 1.1524  96.1 22.1 1.06  37
2024 09 08 02  17 34 35.329   +07 45 37.82  .46221 1.1519  96.0 22.1 1.07  37
2024 09 08 03  17 34 29.959   +07 45 16.34  .46207 1.1514  96.0 22.1 1.09  36
2024 09 08 04  17 34 24.590   +07 44 54.83  .46193 1.1509  95.9 22.1 1.11  36
2024 09 08 05  17 34 19.223   +07 44 33.29  .46179 1.1505  95.9 22.1 1.13  36
2024 09 08 06  17 34 13.859   +07 44 11.73  .46165 1.1500  95.8 22.1 1.14  36
2024 09 08 07  17 34 08.496   +07 43 50.15  .46151 1.1495  95.8 22.1 1.16  36
2024 09 08 08  17 34 03.135   +07 43 28.54  .46136 1.1491  95.7 22.1 1.18  36
2024 09 08 09  17 33 57.775   +07 43 06.90  .46122 1.1486  95.7 22.1 1.20  36
2024 09 08 10  17 33 52.418   +07 42 45.24  .46108 1.1481  95.6 22.1 1.21  36
2024 09 08 11  17 33 47.062   +07 42 23.55  .46094 1.1476  95.5 22.1 1.23  35
2024 09 08 12  17 33 41.708   +07 42 01.84  .46079 1.1472  95.5 22.1 1.25  35
2024 09 08 13  17 33 36.356   +07 41 40.10  .46065 1.1467  95.4 22.1 1.27  35
2024 09 08 14  17 33 31.006   +07 41 18.34  .46051 1.1462  95.4 22.1 1.29  35
2024 09 08 15  17 33 25.657   +07 40 56.56  .46037 1.1457  95.3 22.1 1.30  35
2024 09 08 16  17 33 20.310   +07 40 34.74  .46023 1.1453  95.3 22.1 1.32  35
2024 09 08 17  17 33 14.965   +07 40 12.91  .46008 1.1448  95.2 22.1 1.34  34
2024 09 08 18  17 33 09.621   +07 39 51.04  .45994 1.1443  95.2 22.1 1.36  34
2024 09 08 19  17 33 04.280   +07 39 29.16  .45980 1.1439  95.1 22.1 1.38  34
2024 09 08 20  17 32 58.939   +07 39 07.25  .45965 1.1434  95.0 22.1 1.40  34
2024 09 08 21  17 32 53.601   +07 38 45.31  .45951 1.1429  95.0 22.1 1.42  34
2024 09 08 22  17 32 48.264   +07 38 23.35  .45937 1.1424  94.9 22.1 1.44  34
2024 09 08 23  17 32 42.929   +07 38 01.36  .45923 1.1420  94.9 22.1 1.45  33
2024 09 09 00  17 32 37.595   +07 37 39.35  .45908 1.1415  94.8 22.1 1.47  33
2024 09 09 01  17 32 32.264   +07 37 17.32  .45894 1.1410  94.8 22.1 1.49  33
2024 09 09 02  17 32 26.933   +07 36 55.26  .45880 1.1406  94.7 22.1 1.51  33
2024 09 09 03  17 32 21.604   +07 36 33.17  .45865 1.1401  94.7 22.1 1.53  33
2024 09 09 04  17 32 16.277   +07 36 11.06  .45851 1.1396  94.6 22.1 1.55  32
2024 09 09 05  17 32 10.952   +07 35 48.93  .45837 1.1391  94.5 22.1 1.57  32
2024 09 09 06  17 32 05.628   +07 35 26.77  .45822 1.1387  94.5 22.1 1.59  32
2024 09 09 07  17 32 00.305   +07 35 04.59  .45808 1.1382  94.4 22.1 1.61  32
2024 09 09 08  17 31 54.984   +07 34 42.38  .45794 1.1377  94.4 22.1 1.63  31
2024 09 09 09  17 31 49.665   +07 34 20.14  .45779 1.1372  94.3 22.1 1.65  31
2024 09 09 10  17 31 44.347   +07 33 57.89  .45765 1.1368  94.3 22.1 1.67  31
2024 09 09 11  17 31 39.030   +07 33 35.61  .45750 1.1363  94.2 22.1 1.69  31
2024 09 09 12  17 31 33.715   +07 33 13.30  .45736 1.1358  94.1 22.1 1.71  30
2024 09 09 13  17 31 28.402   +07 32 50.97  .45722 1.1354  94.1 22.1 1.73  30
2024 09 09 14  17 31 23.090   +07 32 28.62  .45707 1.1349  94.0 22.1 1.75  30
2024 09 09 15  17 31 17.779   +07 32 06.24  .45693 1.1344  94.0 22.1 1.77  30